Location: Saint Louis
(38.6272°N, 90.1978°W)
Time: 21:20:37
(UTC-05:00)

ISS - Pass Details

Date: 25 May 2013
Orbit: 402 x 403 km, 51.6° (Epoch: 26 June)

Event Time Altitude Azimuth Distance (km) Brightness Sun altitude
Exits shadow 03:49:56 - 302° (WNW) 1,971 0.0 -18.0°
Reaches altitude 10° 03:51:56 10° 326° (NNW) 1,529 -0.3 -17.7°
Maximum altitude 03:53:08 11° 347° (NNW) 1,440 -0.1 -17.6°
Drops below altitude 10° 03:54:20 10° 8° (N) 1,521 0.4 -17.4°
Sets 03:57:42 0° 44° (NE) 2,374 2.4 -17.0°
